Location: Hylvaty SDH
(49.9612°N, 16.4057°E)
Time: 20:11:07
(UTC+02:00)

Transit 4A - Pass Details

Date: 13 August 2020
Orbit: 862 x 982 km, 66.8° (Epoch: 28 September)

Event Time Altitude Azimuth Distance (km) Brightness Sun altitude
Rises 09:40:40 0° 208° (SSW) 3,488 10.9 36.5°
Reaches altitude 10° 09:43:07 10° 206° (SSW) 2,567 10.3 36.9°
Maximum altitude 09:49:04 75° 123° (ESE) 955 9.1 37.7°
Drops below altitude 10° 09:55:15 10° 39° (NE) 2,667 10.5 38.6°
Sets 09:57:51 0° 38° (NE) 3,633 11.1 39.0°
